Overview Statistics Trail Chart Weather Telemetry Raw packets
 

This is the latest recevied weather packets stored in our database for station/object IV3CGM-13. If no packets are shown the sender has not sent any weather packets the latest 10 day(s).

<< 44 45 46 47 48 49 50 >>
Time Temp. Humidity Pressure Rain* Wind** Luminosity Snow
1787775377 23.89° C 73% 1017.3 hPa 0 mm - 0 W/m² -
1787774690 23.89° C 74% 1017.3 hPa 0 mm - 0 W/m² -
1787773953 23.33° C 75% 1017.4 hPa 0 mm - 0 W/m² -
1787773252 22.78° C 81% 1017.4 hPa 0 mm - 0 W/m² -
1787772564 21.67° C 85% 1017.4 hPa 0 mm - 0 W/m² -
1787771877 22.22° C 83% 1017.3 hPa 0 mm - 0 W/m² -
1787771189 22.22° C 83% 1017.2 hPa 0 mm - 0 W/m² -
1787770453 21.67° C 84% 1017 hPa 0 mm - 0 W/m² -
1787769756 21.67° C 85% 1017 hPa 0 mm - 0 W/m² -
1787769064 21.67° C 82% 1017 hPa 0 mm - 0 W/m² -
1787768376 21.67° C 85% 1017 hPa 0 mm - 0 W/m² -
1787767689 22.22° C 81% 1016.9 hPa 0 mm - 1 W/m² -
1787766953 22.78° C 81% 1016.7 hPa 0 mm - 5 W/m² -
1787766251 22.78° C 81% 1016.5 hPa 0 mm - 12 W/m² -
1787765563 23.33° C 78% 1016.5 hPa 0 mm - 31 W/m² -
1787764876 23.33° C 79% 1016.6 hPa 0 mm - 55 W/m² -
1787764188 23.33° C 80% 1016.8 hPa 0 mm - 52 W/m² -
1787763500 23.33° C 82% 1017 hPa 0 mm - 56 W/m² -
1787762801 23.89° C 79% 1017 hPa 0 mm - 63 W/m² -
1787762126 23.89° C 79% 1016.8 hPa 0 mm - 83 W/m² -
1787761413 24.44° C 79% 1016.8 hPa 0 mm - 100 W/m² -
1787760725 25° C 76% 1016.7 hPa 0 mm - 150 W/m² -
1787760037 25° C 75% 1016.7 hPa 0 mm - 170 W/m² -
1787759350 25.56° C 76% 1016.7 hPa 0 mm - 170 W/m² -
1787758614 25.56° C 74% 1016.7 hPa 0 mm - 179 W/m² -

* Rain latest hour (hover to see other rain measurements)
** Current wind speed in m/s (hover to see current wind gust speed)